결과적으로 기존 카지노 운영자는 결국 파산하고 카지노를 다른 운영자에게 양도합니다.

HoltSnider0458 | 2022.04.27 01:39 | 조회 4
결과적으로 기존 카지노 운영자는 결국 파산하고 카지노를 다른 사람에게 양도합니다. 안전놀이터 모든 카지노 운영자는 결국 파산하고 카지노는 다른 사람에게 양도됩니다.

twitter facebook me2day 요즘
1,427,574개(464/71379페이지)
LECTURE
번호 제목 글쓴이 조회 날짜
1418314 Find Out How To Make Neon Sign HyllestedEwing9284 1 2022.04.27 01:44
1418313 Permainan Di Tempat Gambling Permainan P DreyerShore5110 3 2022.04.27 01:44
1418312 Breakfast Menu Choices For An Event Or E HayBreen7015 3 2022.04.27 01:44
1418311 Eight Greatest Natural Home Cleansing Pr BarbeeOddershede7614 1 2022.04.27 01:44
1418310 6 Common Risks For Consulting Firms JoensenGonzales6491 4 2022.04.27 01:44
1418309 Identities Of The Noodle MarcherFisker4825 1 2022.04.27 01:43
1418308 Język Polski Klasa 6 - Szkoła Podstawowa 사진 KesslerBager3145 2 2022.04.27 01:43
1418307 آموزشگاه پیرایش و آرایشگری مردانه منافی MollerupHaas0152 3 2022.04.27 01:43
1418306 Contribution Margin CastanedaWhite8296 2 2022.04.27 01:43
1418305 Typically the War on Applied Games ButcherSweeney2637 2 2022.04.27 01:43
1418304 What Makes A Poker Player Good? GreenbergBanke1819 2 2022.04.27 01:43
1418303 Believing These 5 Myths About Mink Lash ChristieOneill6032 3 2022.04.27 01:43
1418302 Groupm Makes Advertising Work Better For 사진 WilkersonDowling2676 0 2022.04.27 01:43
1418301 Meluap KELEBIHAN Bila Kalian Selaku Juru MaloneyFoged4652 6 2022.04.27 01:43
1418300 Celebration Meals Ideas For Feeding A Cr AlmeidaBell3701 0 2022.04.27 01:43
1418299 Jai, một nhân vật kết hợp Vũ trụ Nạp thẻ NicholsEngberg1582 2 2022.04.27 01:43
1418298 How To Process Bank Reconciliations In Q CohenIpsen4978 5 2022.04.27 01:43
1418297 Top Songs For Karaoke DoganBreum1277 1 2022.04.27 01:43
1418296 Metode Naikkan Pendapatan Taruhan Sabung BraunBowen4049 4 2022.04.27 01:43
1418295 Pelajari Langkah Keren Bermain Judi Onli BatesBjerrum1988 3 2022.04.27 01:43